DW5247 Lemo FI current weather conditions

sailwx.info

Wind from 090

Air temperature 14.4° C
Dewpoint 12.5° C

Last reported at 2017-Jul-27 02:07 UTC.
Time now 2017-Jul-27 02:42 UTC

Location: N 62°41' E 029°49'.
View on Google Maps.

See reports from other nearby stations

  
Tides and Currents Weather Stations Pressure Air Temp Water Temp Dewpoint Dewpoint Depression Visibility Wind Speed Wind Dir Waves Ship Positions
date/time (UTC)wind fromknots sea level pressurealtimeterstation pressurevisibilityair tempwater tempwave heightnotes
2017-Jul-27 02:07 090 14.4
2017-Jul-27 02:02 113 14.4
2017-Jul-27 01:57 068 14.4
2017-Jul-27 01:52 113 14.4
2017-Jul-27 01:47 068 14.4
2017-Jul-27 01:42 090 14.4
2017-Jul-27 01:37 135 14.4
2017-Jul-27 01:32 113 14.4
2017-Jul-27 01:27 180 14.4
2017-Jul-27 01:22 180 14.4
2017-Jul-27 01:17 135 14.4
2017-Jul-27 01:12 068 14.4
2017-Jul-27 01:07 113 14.4
2017-Jul-27 01:02 068 14.4
2017-Jul-27 00:57 113 14.4
2017-Jul-27 00:52 135 14.4
2017-Jul-27 00:47 135 14.4
2017-Jul-27 00:42 113 0 gusting 2 14.4
2017-Jul-27 00:37 203 0 gusting 2 14.4
2017-Jul-27 00:32 225 0 gusting 1 14.4
2017-Jul-27 00:27 180 0 gusting 1 14.4
2017-Jul-27 00:22 135 14.4
2017-Jul-27 00:17 180 14.4
2017-Jul-27 00:12 113 14.4
2017-Jul-27 00:07 113 14.4
2017-Jul-27 00:02 090 14.4
2017-Jul-26 23:57 113 14.4
2017-Jul-26 23:52 113 14.4
2017-Jul-26 23:47 135 14.4
2017-Jul-26 23:42 135 14.4
2017-Jul-26 23:37 113 14.4
2017-Jul-26 23:32 180 14.4
2017-Jul-26 23:27 135 14.4
2017-Jul-26 23:22 225 0 gusting 2 14.4
2017-Jul-26 23:17 180 0 gusting 2 14.4
2017-Jul-26 23:12 158 0 gusting 2 14.4
2017-Jul-26 23:07 158 0 gusting 2 14.4
2017-Jul-26 23:02 158 1 gusting 4 14.4
2017-Jul-26 22:57 225 1 gusting 6 14.4
2017-Jul-26 22:52 180 2 gusting 6 14.4
2017-Jul-26 22:47 158 2 gusting 6 14.4
2017-Jul-26 22:42 315 1 gusting 6 14.4
2017-Jul-26 22:37 180 1 gusting 6 14.4
2017-Jul-26 22:32 203 1 gusting 6 14.4
2017-Jul-26 22:27 248 1 gusting 4 14.4
2017-Jul-26 22:22 158 1 gusting 4 14.4
2017-Jul-26 22:17 180 1 gusting 4 14.4
2017-Jul-26 22:12 135 1 gusting 6 14.4
2017-Jul-26 22:07 180 3 gusting 6 14.4
2017-Jul-26 22:02 158 3 gusting 6 14.4
2017-Jul-26 21:57 248 4 gusting 6 14.4
2017-Jul-26 21:52 225 3 gusting 6 14.4
2017-Jul-26 21:47 293 3 gusting 7 14.4
2017-Jul-26 21:42 180 4 gusting 7 14.4
2017-Jul-26 21:37 203 4 gusting 7 14.4
2017-Jul-26 21:32 180 3 gusting 10 14.4
2017-Jul-26 21:27 225 1 gusting 10 14.4
2017-Jul-26 21:22 158 2 gusting 10 14.4
2017-Jul-26 21:17 180 1 gusting 2 14.4
2017-Jul-26 21:12 158 3 gusting 6 14.4
2017-Jul-26 21:07 158 3 gusting 6 14.4
2017-Jul-26 20:57 203 3 gusting 4 15.0
2017-Jul-26 20:52 225 3 gusting 6 15.0
2017-Jul-26 20:47 225 3 gusting 6 15.0
2017-Jul-26 20:42 225 3 gusting 6 15.0
2017-Jul-26 20:37 225 3 gusting 4 15.0
2017-Jul-26 20:22 158 1 gusting 5 15.0
2017-Jul-26 20:17 158 2 gusting 5 15.0
2017-Jul-26 20:12 180 2 gusting 5 15.0
2017-Jul-26 20:07 158 1 gusting 3 15.0
2017-Jul-26 20:02 158 1 gusting 3 15.0
2017-Jul-26 19:57 158 0 gusting 0 15.0
2017-Jul-26 19:52 248 0 gusting 3 15.0
2017-Jul-26 19:47 158 0 gusting 5 15.0
2017-Jul-26 19:42 158 1 gusting 5 15.0
2017-Jul-26 19:37 203 2 gusting 5 15.6
2017-Jul-26 19:32 203 2 gusting 5 15.0
2017-Jul-26 19:27 203 2 gusting 5 15.6
2017-Jul-26 19:22 225 1 gusting 5 15.6
2017-Jul-26 19:17 135 0 gusting 1 15.6
2017-Jul-26 19:12 180 0 gusting 2 15.6
2017-Jul-26 19:07 135 0 gusting 2 15.6
2017-Jul-26 19:02 338 0 gusting 2 15.6
2017-Jul-26 18:57 180 0 gusting 5 15.6
2017-Jul-26 18:52 158 0 gusting 5 15.6
2017-Jul-26 18:47 135 0 gusting 5 15.6
2017-Jul-26 18:42 315 0 gusting 3 15.6
2017-Jul-26 18:37 158 0 gusting 4 15.6
2017-Jul-26 18:32 113 1 gusting 4 15.6
2017-Jul-26 18:27 068 1 gusting 4 15.6
2017-Jul-26 18:22 113 1 gusting 4 15.6
2017-Jul-26 18:17 135 1 gusting 2 15.6
2017-Jul-26 18:12 158 0 gusting 2 16.1
2017-Jul-26 18:07 135 0 gusting 3 16.1
2017-Jul-26 18:02 180 1 gusting 3 16.1
2017-Jul-26 17:57 068 2 gusting 4 16.1
2017-Jul-26 17:52 113 2 gusting 4 16.1
2017-Jul-26 17:47 158 2 gusting 3 16.1
2017-Jul-26 17:42 158 2 gusting 3 16.7
2017-Jul-26 17:37 180 1 gusting 4 16.7
2017-Jul-26 17:32 180 3 gusting 4 16.7
2017-Jul-26 17:27 135 2 gusting 3 16.7
2017-Jul-26 17:22 270 1 gusting 3 16.7
2017-Jul-26 17:17 135 1 gusting 3 17.2
2017-Jul-26 17:12 135 1 gusting 3 17.2
2017-Jul-26 17:07 135 1 gusting 3 17.2
2017-Jul-26 17:02 158 1 gusting 2 17.2
2017-Jul-26 16:57 135 0 gusting 2 17.2
2017-Jul-26 16:52 180 0 gusting 4 17.2
2017-Jul-26 16:47 090 1 gusting 4 17.2
2017-Jul-26 16:42 158 2 gusting 4 17.2
2017-Jul-26 16:37 225 1 gusting 3 17.2
2017-Jul-26 16:32 203 1 gusting 4 17.8
2017-Jul-26 16:27 135 2 gusting 4 17.2
2017-Jul-26 16:22 225 2 gusting 6 17.2
2017-Jul-26 16:17 135 2 gusting 6 17.8
2017-Jul-26 16:12 135 2 gusting 4 17.8
2017-Jul-26 16:07 180 2 gusting 4 17.8
2017-Jul-26 16:02 180 2 gusting 5 17.8
2017-Jul-26 15:57 248 2 gusting 5 17.8
2017-Jul-26 15:52 180 2 gusting 8 17.8
2017-Jul-26 15:47 248 3 gusting 8 17.8
2017-Jul-26 15:42 180 3 gusting 8 17.8
2017-Jul-26 15:37 135 3 gusting 6 17.8
2017-Jul-26 15:32 113 2 gusting 6 17.8
2017-Jul-26 15:27 158 1 gusting 3 17.8
2017-Jul-26 15:22 248 1 gusting 4 17.8
2017-Jul-26 15:17 270 1 gusting 6 17.8
2017-Jul-26 15:12 135 2 gusting 6 17.8
2017-Jul-26 15:07 158 3 gusting 7 17.8
2017-Jul-26 15:02 180 3 gusting 7 17.8
2017-Jul-26 14:57 180 3 gusting 6 17.8
2017-Jul-26 14:52 180 3 gusting 6 18.3
2017-Jul-26 14:47 225 3 gusting 6 17.8
2017-Jul-26 14:42 135 2 gusting 6 18.3
2017-Jul-26 14:37 203 2 gusting 6 18.3
2017-Jul-26 14:32 225 2 gusting 6 17.8
2017-Jul-26 14:27 180 3 gusting 6 17.8
2017-Jul-26 14:22 180 3 gusting 6 18.3
2017-Jul-26 14:17 158 3 gusting 4 17.8
2017-Jul-26 14:12 180 2 gusting 7 17.8
2017-Jul-26 14:07 158 3 gusting 7 17.8
2017-Jul-26 14:02 135 3 gusting 7 18.3
2017-Jul-26 13:57 113 3 gusting 7 18.3
2017-Jul-26 13:52 113 3 gusting 7 18.3
2017-Jul-26 13:47 180 3 gusting 6 17.8
2017-Jul-26 13:42 068 3 gusting 6 18.3
2017-Jul-26 13:37 113 3 gusting 6 18.3
2017-Jul-26 13:32 113 4 gusting 7 18.3
2017-Jul-26 13:27 180 4 gusting 8 18.3
2017-Jul-26 13:22 293 4 gusting 8 18.3
2017-Jul-26 13:07 113 2 gusting 6 18.3
2017-Jul-26 13:02 113 1 gusting 5 18.3
2017-Jul-26 12:57 068 2 gusting 6 18.3
2017-Jul-26 12:52 180 3 gusting 7 18.3
2017-Jul-26 12:47 180 3 gusting 7 18.3
2017-Jul-26 12:42 135 2 gusting 7 18.3
2017-Jul-26 12:37 135 1 gusting 3 18.3
2017-Jul-26 12:32 180 1 gusting 3 17.8
2017-Jul-26 12:27 180 2 gusting 3 18.3
2017-Jul-26 12:22 225 2 gusting 4 18.3
2017-Jul-26 12:17 180 2 gusting 4 18.3
2017-Jul-26 12:12 113 2 gusting 4 18.3
2017-Jul-26 12:07 113 2 gusting 4 18.3
2017-Jul-26 12:02 090 2 gusting 6 18.3
2017-Jul-26 11:57 113 2 gusting 6 18.3
2017-Jul-26 11:52 135 3 gusting 6 18.3
2017-Jul-26 11:47 180 3 gusting 6 18.3
2017-Jul-26 11:42 135 3 gusting 6 17.8
2017-Jul-26 11:37 135 3 gusting 5 17.8
2017-Jul-26 11:32 113 3 gusting 5 17.8
2017-Jul-26 11:27 068 3 gusting 5 17.8
2017-Jul-26 11:22 113 3 gusting 5 17.8
2017-Jul-26 11:17 113 3 gusting 4 17.8
2017-Jul-26 11:12 158 3 gusting 4 18.3
2017-Jul-26 11:07 113 3 gusting 4 18.3
2017-Jul-26 11:02 158 1 gusting 4 18.3
2017-Jul-26 10:57 090 1 gusting 5 18.3
2017-Jul-26 10:52 203 2 gusting 5 18.3
2017-Jul-26 10:47 135 2 gusting 5 18.3
2017-Jul-26 10:42 113 3 gusting 5 18.3
2017-Jul-26 10:37 270 2 gusting 6 18.3
2017-Jul-26 10:32 135 1 gusting 6 18.3
2017-Jul-26 10:27 180 2 gusting 6 18.3
2017-Jul-26 10:22 135 3 gusting 6 18.3
2017-Jul-26 10:17 203 4 gusting 7 18.3
2017-Jul-26 10:12 090 4 gusting 7 18.3
2017-Jul-26 10:07 090 4 gusting 7 18.3
2017-Jul-26 10:02 135 4 gusting 6 18.3
2017-Jul-26 09:57 113 3 gusting 6 18.3
2017-Jul-26 09:52 113 3 gusting 6 18.3
2017-Jul-26 09:47 023 4 gusting 5 18.3
2017-Jul-26 09:42 135 2 gusting 5 17.8
2017-Jul-26 09:37 135 1 gusting 4 17.8
2017-Jul-26 09:32 023 1 gusting 4 17.8
2017-Jul-26 09:27 135 1 gusting 4 17.8
2017-Jul-26 09:22 135 1 gusting 4 17.8
2017-Jul-26 09:17 113 1 gusting 2 17.2
2017-Jul-26 09:12 135 2 gusting 4 17.2
2017-Jul-26 09:07 135 2 gusting 9 17.2
2017-Jul-26 09:02 158 2 gusting 9 17.2
2017-Jul-26 08:57 113 3 gusting 9 17.2
2017-Jul-26 08:52 135 3 gusting 6 17.2
2017-Jul-26 08:47 113 3 gusting 4 17.8
2017-Jul-26 08:42 135 2 gusting 4 17.8
2017-Jul-26 08:37 090 3 gusting 4 17.8
2017-Jul-26 08:32 045 3 gusting 4 17.8
2017-Jul-26 08:27 068 3 gusting 4 17.8
2017-Jul-26 08:22 113 2 gusting 5 17.8
2017-Jul-26 08:17 113 3 gusting 5 17.8
2017-Jul-26 08:12 135 3 gusting 5 17.8
2017-Jul-26 08:07 135 2 gusting 4 17.8
2017-Jul-26 08:02 090 3 gusting 4 17.8
2017-Jul-26 07:57 068 2 gusting 4 17.8
2017-Jul-26 07:52 113 2 gusting 3 17.8
2017-Jul-26 07:47 135 1 gusting 3 17.8
2017-Jul-26 07:42 225 2 gusting 3 17.8
2017-Jul-26 07:37 203 2 gusting 2 17.8
2017-Jul-26 07:32 180 1 gusting 4 17.8
2017-Jul-26 07:27 225 1 gusting 5 17.2
2017-Jul-26 07:22 225 2 gusting 5 17.2
2017-Jul-26 07:17 203 2 gusting 5 16.7
2017-Jul-26 07:12 135 2 gusting 5 16.7
2017-Jul-26 07:07 135 1 gusting 5 16.7
2017-Jul-26 07:02 180 1 gusting 5 16.7
2017-Jul-26 06:57 113 1 gusting 6 16.7
2017-Jul-26 06:52 135 1 gusting 6 16.7
2017-Jul-26 06:47 203 0 gusting 6 16.1
2017-Jul-26 06:42 158 1 gusting 4 16.1
2017-Jul-26 06:37 248 1 gusting 3 16.1
2017-Jul-26 06:32 023 1 gusting 2 16.1
2017-Jul-26 06:27 135 0 gusting 2 15.6
2017-Jul-26 06:22 203 1 gusting 2 15.6
2017-Jul-26 06:17 203 1 gusting 2 15.6
2017-Jul-26 06:12 203 0 gusting 2 15.0
2017-Jul-26 06:07 090 0 gusting 4 15.0
2017-Jul-26 06:02 180 1 gusting 4 15.0
2017-Jul-26 05:57 248 2 gusting 4 14.4
2017-Jul-26 05:52 248 2 gusting 3 14.4
2017-Jul-26 05:47 180 1 gusting 3 14.4
2017-Jul-26 05:42 248 1 gusting 3 14.4
2017-Jul-26 05:37 180 1 gusting 3 14.4
2017-Jul-26 05:32 225 1 gusting 3 14.4
2017-Jul-26 05:27 203 1 gusting 4 14.4
2017-Jul-26 05:22 180 1 gusting 4 13.9
2017-Jul-26 05:17 203 1 gusting 4 13.9
2017-Jul-26 05:12 203 1 gusting 3 13.9
2017-Jul-26 05:07 135 1 gusting 3 13.9
2017-Jul-26 05:02 225 1 gusting 3 13.9
2017-Jul-26 04:57 225 0 gusting 3 13.9
2017-Jul-26 04:52 180 0 gusting 2 13.9
2017-Jul-26 04:47 158 1 gusting 2 13.3
2017-Jul-26 04:42 158 1 gusting 3 13.3
2017-Jul-26 04:37 180 1 gusting 3 13.3
2017-Jul-26 04:32 180 1 gusting 3 13.3
2017-Jul-26 04:27 248 0 gusting 2 13.3
2017-Jul-26 04:22 135 0 gusting 2 13.3
2017-Jul-26 04:17 158 0 gusting 2 13.3
2017-Jul-26 04:12 225 0 gusting 3 13.3
2017-Jul-26 04:07 270 0 gusting 3 13.3
2017-Jul-26 04:02 270 1 gusting 3 13.3
2017-Jul-26 03:57 203 0 gusting 4 12.8
2017-Jul-26 03:52 225 1 gusting 5 12.8
2017-Jul-26 03:47 158 1 gusting 5 12.8
2017-Jul-26 03:42 225 2 gusting 5 12.8
2017-Jul-26 03:37 225 1 gusting 3 12.8
2017-Jul-26 03:32 225 1 gusting 3 12.8
2017-Jul-26 03:27 225 1 gusting 2 12.8
2017-Jul-26 03:22 248 1 gusting 2 12.8
2017-Jul-26 03:17 135 1 12.8
2017-Jul-26 03:12 225 0 gusting 2 12.8
2017-Jul-26 03:07 225 0 gusting 2 12.8
2017-Jul-26 03:02 248 0 gusting 3 12.8
2017-Jul-26 02:57 225 1 gusting 3 12.8
2017-Jul-26 02:52 180 1 gusting 3 12.8
2017-Jul-26 02:47 180 0 gusting 2 12.8
2017-Jul-26 02:42 248 12.8
2017-Jul-26 02:37 248 12.8
2017-Jul-26 02:32 225 12.8
2017-Jul-26 02:27 203 12.8
2017-Jul-26 02:22 225 12.8
2017-Jul-26 02:17 225 12.2
2017-Jul-26 02:12 203 12.2
2017-Jul-26 02:07 180 12.8
2017-Jul-26 02:02 180 12.8
2017-Jul-26 01:57 180 12.2
2017-Jul-26 01:52 225 12.2
2017-Jul-26 01:47 293 12.8
2017-Jul-26 01:42 225 12.2
2017-Jul-26 01:37 203 12.2
2017-Jul-26 01:32 270 12.2
2017-Jul-26 01:27 090 12.8
2017-Jul-26 01:22 270 12.2
2017-Jul-26 01:17 158 0 gusting 2 12.2
2017-Jul-26 01:12 225 0 gusting 2 12.8
2017-Jul-26 01:07 225 0 gusting 3 12.2
2017-Jul-26 01:02 225 0 gusting 3 12.2
2017-Jul-26 00:57 203 1 gusting 3 12.2
2017-Jul-26 00:52 203 0 gusting 2 12.8
2017-Jul-26 00:47 225 0 gusting 2 12.8
2017-Jul-26 00:42 225 1 gusting 2 12.8
2017-Jul-26 00:37 225 0 gusting 3 12.8
2017-Jul-26 00:32 180 0 gusting 3 12.8
2017-Jul-26 00:27 248 1 gusting 3 12.8
2017-Jul-26 00:22 180 1 gusting 3 12.8
2017-Jul-26 00:17 225 0 gusting 3 12.8
2017-Jul-26 00:12 203 1 gusting 3 12.8
2017-Jul-26 00:07 203 1 gusting 2 12.8
2017-Jul-26 00:02 248 1 gusting 3 12.8
2017-Jul-25 23:57 225 1 gusting 3 12.8
2017-Jul-25 23:52 180 1 gusting 3 12.8
2017-Jul-25 23:47 248 1 gusting 2 12.8
2017-Jul-25 23:42 225 1 gusting 2 12.8
2017-Jul-25 23:37 225 1 gusting 2 12.8
2017-Jul-25 23:32 203 0 gusting 2 12.8
2017-Jul-25 23:27 270 12.8
2017-Jul-25 23:22 225 12.8
2017-Jul-25 23:17 225 0 gusting 2 12.8
2017-Jul-25 23:12 248 1 gusting 2 13.3
2017-Jul-25 23:07 248 1 gusting 2 13.3
2017-Jul-25 23:02 248 0 gusting 2 13.3
2017-Jul-25 22:57 225 0 gusting 1 12.8
2017-Jul-25 22:52 248 0 gusting 1 13.3
2017-Jul-25 22:47 338 0 gusting 2 13.3
2017-Jul-25 22:42 180 0 gusting 2 13.3
2017-Jul-25 22:37 225 0 gusting 2 13.3
2017-Jul-25 22:32 180 0 gusting 2 13.3
2017-Jul-25 22:27 203 1 gusting 2 13.3
2017-Jul-25 22:22 225 0 gusting 1 13.3
2017-Jul-25 22:17 248 0 gusting 1 13.3
2017-Jul-25 22:12 248 0 gusting 3 13.3
2017-Jul-25 22:07 225 0 gusting 3 13.3
2017-Jul-25 22:02 270 1 gusting 5 13.3
2017-Jul-25 21:57 180 1 gusting 5 13.3
2017-Jul-25 21:52 248 1 gusting 5 13.3
2017-Jul-25 21:47 225 1 gusting 3 13.3
2017-Jul-25 21:42 248 1 gusting 2 13.3
2017-Jul-25 21:37 248 0 gusting 3 13.3
2017-Jul-25 21:32 248 0 gusting 3 13.3
2017-Jul-25 21:27 248 0 gusting 3 13.3
2017-Jul-25 21:22 293 13.3
2017-Jul-25 21:17 270 0 gusting 3 13.3
2017-Jul-25 21:12 248 1 gusting 3 13.3
2017-Jul-25 21:07 248 1 gusting 3 13.3
2017-Jul-25 20:57 203 1 gusting 5 13.3
2017-Jul-25 20:52 225 2 gusting 5 13.3
2017-Jul-25 20:47 158 2 gusting 5 13.3
2017-Jul-25 20:42 180 1 gusting 4 13.3
2017-Jul-25 20:37 225 1 gusting 4 13.9
2017-Jul-25 20:32 203 2 gusting 4 13.3
2017-Jul-25 20:27 203 1 gusting 4 13.3
2017-Jul-25 20:22 248 1 gusting 3 13.3
2017-Jul-25 20:17 248 1 gusting 3 13.3
2017-Jul-25 20:12 248 1 gusting 4 13.3
2017-Jul-25 20:07 203 2 gusting 4 13.3
2017-Jul-25 20:02 248 2 gusting 4 13.9
2017-Jul-25 19:57 225 2 gusting 3 13.9
2017-Jul-25 19:52 315 1 gusting 1 13.9
2017-Jul-25 19:47 158 13.9
2017-Jul-25 19:42 180 13.9
2017-Jul-25 19:37 135 13.9
2017-Jul-25 19:32 135 13.9
2017-Jul-25 19:27 135 13.9
2017-Jul-25 19:22 135 13.9
2017-Jul-25 19:17 068 13.9
2017-Jul-25 19:12 113 13.9
2017-Jul-25 19:07 113 13.9
2017-Jul-25 19:02 135 13.9
2017-Jul-25 18:57 203 13.9
2017-Jul-25 18:52 180 13.9
2017-Jul-25 18:47 203 0 gusting 3 13.9
2017-Jul-25 18:42 180 1 gusting 4 13.9
2017-Jul-25 18:37 203 1 gusting 4 13.9
2017-Jul-25 18:32 203 1 gusting 4 13.9
2017-Jul-25 18:27 158 1 gusting 3 14.4
2017-Jul-25 18:22 158 1 gusting 3 14.4
2017-Jul-25 18:17 203 1 gusting 3 14.4
2017-Jul-25 18:12 203 1 gusting 3 14.4
2017-Jul-25 18:07 180 1 gusting 3 14.4
2017-Jul-25 18:02 180 1 gusting 4 14.4
2017-Jul-25 17:57 225 1 gusting 4 14.4
2017-Jul-25 17:52 180 1 gusting 2 14.4
2017-Jul-25 17:47 180 0 gusting 2 14.4
2017-Jul-25 17:42 270 1 gusting 4 14.4
2017-Jul-25 17:37 180 1 gusting 4 14.4
2017-Jul-25 17:32 225 2 gusting 4 14.4
2017-Jul-25 17:27 203 2 gusting 4 14.4
2017-Jul-25 17:22 203 2 gusting 4 14.4
2017-Jul-25 17:17 248 1 gusting 3 14.4
2017-Jul-25 17:12 225 1 gusting 3 14.4
2017-Jul-25 17:07 158 1 gusting 3 14.4
2017-Jul-25 17:02 180 1 gusting 3 14.4
2017-Jul-25 16:57 135 2 gusting 3 14.4
2017-Jul-25 16:52 225 1 gusting 3 14.4
2017-Jul-25 16:47 135 1 gusting 3 14.4
2017-Jul-25 16:42 135 1 gusting 3 14.4
2017-Jul-25 16:37 158 1 gusting 2 14.4
2017-Jul-25 16:32 225 1 gusting 3 14.4
2017-Jul-25 16:27 180 1 gusting 3 14.4
2017-Jul-25 16:22 180 2 gusting 3 14.4
2017-Jul-25 16:17 180 2 gusting 3 14.4
2017-Jul-25 16:12 090 1 gusting 5 14.4
2017-Jul-25 16:07 180 1 gusting 5 14.4
2017-Jul-25 16:02 135 1 gusting 4 14.4
2017-Jul-25 15:57 158 1 gusting 4 14.4
2017-Jul-25 15:52 158 2 gusting 6 14.4
2017-Jul-25 15:47 158 2 gusting 6 14.4
2017-Jul-25 15:42 248 3 gusting 6 14.4
2017-Jul-25 15:37 248 3 gusting 4 14.4
2017-Jul-25 15:32 180 2 gusting 4 14.4
2017-Jul-25 15:27 248 2 gusting 4 14.4
2017-Jul-25 15:22 225 1 gusting 5 14.4
2017-Jul-25 15:17 158 2 gusting 5 14.4
2017-Jul-25 15:12 248 2 gusting 2 14.4
2017-Jul-25 15:07 158 2 gusting 3 14.4
2017-Jul-25 15:02 248 1 gusting 3 14.4
2017-Jul-25 14:57 158 1 gusting 3 14.4
2017-Jul-25 14:52 180 1 gusting 4 14.4
2017-Jul-25 14:47 180 1 gusting 4 14.4
2017-Jul-25 14:42 248 2 gusting 4 14.4
2017-Jul-25 14:37 203 3 gusting 4 14.4
2017-Jul-25 14:32 225 2 gusting 4 14.4
2017-Jul-25 14:27 225 2 gusting 7 14.4
2017-Jul-25 14:22 225 2 gusting 7 14.4
2017-Jul-25 14:17 135 2 gusting 7 14.4
2017-Jul-25 14:12 180 2 gusting 4 14.4
2017-Jul-25 14:07 135 2 gusting 4 14.4
2017-Jul-25 14:02 180 1 gusting 4 14.4
2017-Jul-25 13:57 135 1 gusting 4 14.4
2017-Jul-25 13:52 180 1 gusting 4 14.4
2017-Jul-25 13:47 225 2 gusting 4 14.4
2017-Jul-25 13:42 113 2 gusting 5 14.4
2017-Jul-25 13:37 180 2 gusting 5 14.4
2017-Jul-25 13:32 135 1 gusting 5 14.4
2017-Jul-25 13:27 180 1 gusting 5 14.4
2017-Jul-25 13:22 203 1 gusting 6 14.4
2017-Jul-25 13:07 158 2 gusting 3 14.4
2017-Jul-25 13:02 135 1 gusting 4 14.4
2017-Jul-25 12:57 248 2 gusting 4 14.4
2017-Jul-25 12:52 158 2 gusting 5 14.4
2017-Jul-25 12:47 225 2 gusting 5 14.4
2017-Jul-25 12:42 180 3 gusting 5 14.4
2017-Jul-25 12:37 225 3 gusting 6 14.4
2017-Jul-25 12:32 180 3 gusting 6 14.4
2017-Jul-25 12:27 113 3 gusting 6 13.9
2017-Jul-25 12:22 203 3 gusting 6 13.9
2017-Jul-25 12:17 180 3 gusting 6 14.4
2017-Jul-25 12:12 158 2 gusting 6 13.9
2017-Jul-25 12:07 135 1 gusting 6 13.9
2017-Jul-25 12:02 158 2 gusting 3 13.9
2017-Jul-25 11:57 248 3 gusting 5 13.9
2017-Jul-25 11:52 158 3 gusting 5 13.9
2017-Jul-25 11:47 225 3 gusting 5 13.9
2017-Jul-25 11:42 225 3 gusting 3 13.9
2017-Jul-25 11:37 203 3 gusting 4 13.9
2017-Jul-25 11:32 270 2 gusting 5 13.9
2017-Jul-25 11:27 203 2 gusting 5 13.9
2017-Jul-25 11:22 180 3 gusting 5 13.9
2017-Jul-25 11:17 225 2 gusting 4 13.9
2017-Jul-25 11:12 158 2 gusting 4 13.9
2017-Jul-25 11:07 248 2 gusting 5 13.9
2017-Jul-25 11:02 135 2 gusting 6 13.3
2017-Jul-25 10:57 180 3 gusting 6 13.3
2017-Jul-25 10:52 225 3 gusting 6 13.3
2017-Jul-25 10:47 158 3 gusting 6 13.9
2017-Jul-25 10:42 158 3 gusting 6 13.9
2017-Jul-25 10:37 158 3 gusting 6 13.9
2017-Jul-25 10:32 180 2 gusting 7 13.9
2017-Jul-25 10:27 113 2 gusting 7 13.9
2017-Jul-25 10:22 203 3 gusting 7 13.9
2017-Jul-25 10:17 180 3 gusting 7 13.9
2017-Jul-25 10:12 203 4 gusting 7 13.9
2017-Jul-25 10:07 248 4 gusting 7 13.9
2017-Jul-25 10:02 135 3 gusting 7 13.9
2017-Jul-25 09:57 158 3 gusting 6 13.9
2017-Jul-25 09:52 203 3 gusting 6 13.9
2017-Jul-25 09:47 180 2 gusting 6 13.9
2017-Jul-25 09:42 270 1 gusting 6 13.9
2017-Jul-25 09:37 248 2 gusting 8 13.9
2017-Jul-25 09:32 203 3 gusting 8 13.9
2017-Jul-25 09:27 180 3 gusting 8 13.9
2017-Jul-25 09:22 203 3 gusting 7 13.9
2017-Jul-25 09:17 225 3 gusting 6 13.9
2017-Jul-25 09:12 180 3 gusting 6 13.9
2017-Jul-25 09:07 180 3 gusting 6 13.9
2017-Jul-25 09:02 180 3 gusting 5 13.9
2017-Jul-25 08:57 315 3 gusting 6 13.9
2017-Jul-25 08:52 248 4 gusting 7 13.9
2017-Jul-25 08:47 248 3 gusting 7 13.9
2017-Jul-25 08:42 158 3 gusting 8 13.9
2017-Jul-25 08:37 225 3 gusting 8 13.9
2017-Jul-25 08:32 135 4 gusting 8 13.9
2017-Jul-25 08:27 180 3 gusting 5 13.9
2017-Jul-25 08:22 225 3 gusting 5 13.9
2017-Jul-25 08:17 225 3 gusting 6 13.9
2017-Jul-25 08:12 158 3 gusting 7 13.9
2017-Jul-25 08:07 180 3 gusting 4 13.9
2017-Jul-25 08:02 270 3 gusting 4 13.9
2017-Jul-25 07:57 180 1 gusting 5 13.9
2017-Jul-25 07:52 158 2 gusting 5 13.9
2017-Jul-25 07:47 135 2 gusting 5 13.9
2017-Jul-25 07:42 135 2 gusting 5 13.9
2017-Jul-25 07:37 158 2 gusting 5 13.9
2017-Jul-25 07:32 180 2 gusting 5 13.9
2017-Jul-25 07:27 203 2 gusting 4 13.3
2017-Jul-25 07:22 225 2 gusting 6 13.9
2017-Jul-25 07:17 225 2 gusting 6 13.9
2017-Jul-25 07:12 113 1 gusting 5 13.9
2017-Jul-25 07:07 090 1 gusting 5 13.9
2017-Jul-25 07:02 135 2 gusting 5 13.3
2017-Jul-25 06:57 113 2 gusting 4 13.9
2017-Jul-25 06:52 180 2 gusting 4 13.3
2017-Jul-25 06:47 203 2 gusting 4 13.9
2017-Jul-25 06:42 180 1 gusting 3 13.9
2017-Jul-25 06:37 203 0 gusting 3 13.9
2017-Jul-25 06:32 180 1 gusting 6 13.3
2017-Jul-25 06:27 158 2 gusting 6 13.3
2017-Jul-25 06:22 135 1 gusting 6 13.3
2017-Jul-25 06:17 113 1 gusting 3 13.3
2017-Jul-25 06:12 113 0 gusting 3 13.3
2017-Jul-25 06:07 090 0 gusting 3 13.3
2017-Jul-25 06:02 090 1 gusting 3 13.3
2017-Jul-25 05:57 180 1 gusting 3 13.3
2017-Jul-25 05:52 135 1 gusting 3 13.3
2017-Jul-25 05:47 113 0 gusting 2 13.3
2017-Jul-25 05:42 158 0 gusting 1 13.3
2017-Jul-25 05:37 158 13.3
2017-Jul-25 05:32 270 13.3
2017-Jul-25 05:27 113 13.3
2017-Jul-25 05:22 180 0 gusting 3 13.3
2017-Jul-25 05:17 135 0 gusting 3 13.3
2017-Jul-25 05:12 180 1 gusting 3 13.3
2017-Jul-25 05:07 158 0 gusting 3 13.3
2017-Jul-25 05:02 135 0 gusting 3 13.3
2017-Jul-25 04:57 090 1 gusting 3 13.3
2017-Jul-25 04:52 113 1 gusting 3 13.3
2017-Jul-25 04:47 113 0 gusting 2 13.3
2017-Jul-25 04:42 135 0 gusting 1 13.3
2017-Jul-25 04:37 135 13.3
2017-Jul-25 04:32 113 13.3
2017-Jul-25 04:27 180 13.3
2017-Jul-25 04:22 113 13.3
2017-Jul-25 04:17 158 0 gusting 2 13.3
2017-Jul-25 04:12 135 13.3
2017-Jul-25 04:07 158 0 gusting 1 13.3
2017-Jul-25 04:02 135 0 gusting 1 13.3
2017-Jul-25 03:57 180 13.3
2017-Jul-25 03:52 158 13.3
2017-Jul-25 03:47 270 13.3
2017-Jul-25 03:42 158 0 gusting 2 13.3
2017-Jul-25 03:37 135 0 gusting 1 13.3
2017-Jul-25 03:32 180 13.3
2017-Jul-25 03:27 158 13.3
2017-Jul-25 03:22 135 13.3
2017-Jul-25 03:17 135 13.3
2017-Jul-25 03:12 180 0 gusting 1 13.3
2017-Jul-25 03:07 180 0 gusting 1 13.3
2017-Jul-25 03:02 158 0 gusting 1 13.3
2017-Jul-25 02:57 068 0 gusting 1 13.3
2017-Jul-25 02:52 135 13.3
2017-Jul-25 02:47 180 13.3
2017-Jul-25 02:42 113 13.3
2017-Jul-25 02:37 158 0 gusting 3 13.3
2017-Jul-25 02:32 158 1 gusting 2 13.3
2017-Jul-25 02:27 135 1 gusting 3 13.3
2017-Jul-25 02:22 135 1 gusting 3 13.3
2017-Jul-25 02:17 315 1 gusting 3 13.3
2017-Jul-25 02:12 180 1 gusting 2 13.3
2017-Jul-25 02:07 158 0 gusting 2 13.3
2017-Jul-25 02:02 180 0 gusting 3 13.3